Location: Unspecified
(34.4950°S, 58.5160°W)
Time: 00:03:37
(UTC+00:00)

Cosmos 2322 Rocket - Pass Details

Date: 19 April 2026
Orbit: 832 x 849 km, 71.0° (Epoch: 16 May)

Event Time Altitude Azimuth Distance (km) Brightness Sun altitude
Rises 08:58:27 0° 346° (NNW) 3,395 5.2 -17.6°
Reaches altitude 10° 09:00:53 10° 348° (NNW) 2,469 4.5 -17.1°
Maximum altitude 09:06:32 73° 71° (ENE) 898 2.5 -15.9°
Drops below altitude 10° 09:12:16 10° 155° (SSE) 2,502 4.9 -14.7°
Sets 09:14:45 0° 156° (SSE) 3,444 5.6 -14.2°
